Fitchburg, MA

5:44 PM EDT on May 22, 2017 (GMT -0400)
Fitchburg Municipal

Weather History for KFIT - April, 2014

Change the Weather History Date:

Wednesday, April 23, 2014

  Actual Average (KORH) Record (KORH)
Temperature  
Mean Temperature 52 °F -  
Max Temperature 55 °F 57 °F 84 °F (1902)
Min Temperature 46 °F 38 °F 20 °F (1933)
Degree Days  
Heating Degree Days 14    
Growing Degree Days 2 (Base 50)    
Moisture  
Dew Point 41 °F    
Average Humidity 68    
Maximum Humidity 86    
Minimum Humidity 47    
Precipitation  
Precipitation 0.24 in - - ()
Sea Level Pressure  
Sea Level Pressure 29.51 in    
Wind  
Wind Speed 8 mph (NW)    
Max Wind Speed 25 mph    
Max Gust Speed 33 mph    
Visibility 9 miles    
Events Rain    
Averages and records for this station are not official NWS values.
T = Trace of Precipitation, MM = Missing Value Source: NWS Daily Summary

Daily Weather History Graph

Daily Weather History Graph

Search for Another Location

Airport or City:

Trip Planner

Search our weather history database for the weather conditions in past years. The results will help you decide how hot, cold, wet, or windy it might be!

Date:

Astronomy

Apr. 23, 2014 Rise Set
Actual Time 5:53 AM EDT 7:38 PM EDT
Civil Twilight 5:23 AM EDT 8:08 PM EDT
Nautical Twilight 4:47 AM EDT 8:44 PM EDT
Astronomical Twilight 4:08 AM EDT 9:23 PM EDT
Moon 2:31 AM EDT (4/23) 1:35 PM EDT (4/23)
Length of Visible Light 14h 44m
Length of Day
13h 44m
Waning Crescent, 35% of the Moon is Illuminated
Apr 23
Waning Crescent
Apr 29
New
May 6
First Quarter
May 14
Full
May 21
Last Quarter

Hourly Weather History & Observations

Time (EDT) Temp. Windchill Dew Point Humidity Pressure Visibility Wind Dir Wind Speed Gust Speed Precip Events Conditions
12:52 AM 57.0 °F - 51.1 °F 81% 29.47 in 10.0 mi Calm Calm - N/A   Mostly Cloudy
2:52 AM 55.9 °F - 48.9 °F 77% 29.45 in 10.0 mi Calm Calm - N/A   Overcast
3:52 AM 55.9 °F - 48.9 °F 77% 29.44 in 10.0 mi Calm Calm - N/A   Overcast
4:52 AM 54.0 °F - 46.9 °F 77% 29.44 in 10.0 mi NW 11.5 mph - N/A   Overcast
5:52 AM 52.0 °F - 45.0 °F 77% 29.46 in 10.0 mi WNW 5.8 mph - N/A   Overcast
6:52 AM 51.1 °F - 44.1 °F 77% 29.48 in 10.0 mi NW 10.4 mph - N/A   Overcast
7:52 AM 51.1 °F - 44.1 °F 77% 29.47 in 10.0 mi NW 11.5 mph - N/A   Overcast
8:52 AM 53.1 °F - 44.1 °F 71% 29.46 in 10.0 mi WNW 12.7 mph - 0.00 in Rain Light Rain
9:29 AM 53.1 °F - 43.0 °F 69% 29.46 in 10.0 mi NNW 8.1 mph - 0.00 in   Overcast
9:52 AM 53.1 °F - 43.0 °F 69% 29.47 in 10.0 mi NNW 8.1 mph - 0.00 in   Overcast
10:24 AM 51.1 °F - 46.0 °F 83% 29.48 in 2.5 mi WNW 4.6 mph - 0.04 in Rain Rain
10:52 AM 50.0 °F - 46.0 °F 86% 29.47 in 2.5 mi NW 8.1 mph - 0.12 in Rain Rain
11:00 AM 50.0 °F - 46.0 °F 86% 29.48 in 3.0 mi WNW 5.8 mph - 0.02 in Rain Rain
11:24 AM 50.0 °F - 45.0 °F 83% 29.48 in 5.0 mi NW 9.2 mph - 0.05 in Rain Light Rain
11:52 AM 50.0 °F - 46.0 °F 86% 29.48 in 4.0 mi NW 9.2 mph - 0.11 in Rain Rain
1:52 PM 52.0 °F - 42.1 °F 69% 29.48 in 10.0 mi NNW 13.8 mph 21.9 mph 0.00 in   Overcast
2:52 PM 52.0 °F - 36.0 °F 54% 29.49 in 10.0 mi NW 19.6 mph 31.1 mph 0.01 in   Overcast
3:52 PM 54.0 °F - 34.0 °F 47% 29.49 in 10.0 mi North 21.9 mph 33.4 mph N/A   Overcast
4:52 PM 52.0 °F - 33.1 °F 49% 29.52 in 10.0 mi NNW 19.6 mph 32.2 mph N/A   Overcast
5:52 PM 51.1 °F - 33.1 °F 50% 29.55 in 10.0 mi NNW 23.0 mph 31.1 mph N/A   Overcast
6:52 PM 50.0 °F - 33.1 °F 52% 29.56 in 10.0 mi NNW 13.8 mph 26.5 mph N/A   Overcast
7:52 PM 50.0 °F - 32.0 °F 50% 29.59 in 10.0 mi NW 25.3 mph 33.4 mph N/A   Overcast
8:52 PM 48.9 °F - 32.0 °F 52% 29.62 in 10.0 mi NW 18.4 mph 31.1 mph N/A   Overcast
9:52 PM 46.9 °F - 32.0 °F 56% 29.64 in 10.0 mi NNW 16.1 mph 23.0 mph N/A   Overcast
10:52 PM 46.9 °F - 30.9 °F 54% 29.65 in 10.0 mi NNW 18.4 mph 32.2 mph N/A   Overcast
11:52 PM 46.0 °F 38.8 °F 28.9 °F 51% 29.66 in 10.0 mi NNW 18.4 mph 29.9 mph N/A   Overcast